Main page
METAR-TAF:

METAR-TAF

Airports :

Podgorica, Montenegro

Podgorica Airport

latitude: 42-26N, longitude: 019-17E, elevation: 53 m

Current weather observation

The report was made 23 minutes ago, at 19:00 UTC
Wind 2 kt from the North
Temperature 16°C
Humidity 82%
Pressure 1019 hPa
Visibility 10 km or more
no clouds below 1500 m and no cumulonimbus

METAR: LYPG 211900Z 01002KT CAVOK 16/13 Q1019 NOSIG

Time: 21:23 (19:23 UTC)

Forecast

The report was made 2 hours and 23 minutes ago, at 17:00 UTC
Forecast valid from 21 at 18 UTC to 22 at 18 UTC
Wind 5 kt from the North
Visibility 10 km or more
no clouds below 1500 m and no cumulonimbus

TAF: LYPG 211700Z 2118/2218 36005KT CAVOK TX21/2213Z TN11/2205Z

Weather observations and forecasts of more than 4000 airports (METAR and TAF reports).

The available stations are represented by yellow and red dots on the map.

Hover mouse over dot to see the name of the station.

Then click to see weather observations and forecasts.

To change the map : click on the green buttons with a black cross to zoom in, on the green button with a dash to zoom out, or on the green arrows for adjacent maps.


METAR-TAF: